FDB437 OMDB-VAAH

Flight info

Callsign FDB437
Flight time N/A
Altitude 35000
Route IVURO M677 LALDO B505 NADSO B524 ALPOR M504 TELEM N893 VASLA VASLA1A
Aircraft B738/M-SABDFGRVYL/LB2

Departure

Time N/A
Airport Dubai International Airport (OMDB)

Arrival

Time 2026-04-26 11:38
Airport Sardar Vallabh Patel International Airport (VAAH)
Time Latitude Longitude Altitude Speed Heading
2026-04-26 10:56 24.06409 68.42480 34742 ft 450 kts 79°
2026-04-26 10:56 24.06938 68.45852 34740 ft 450 kts 79°
2026-04-26 10:57 24.07990 68.52569 34741 ft 451 kts 79°
2026-04-26 10:57 24.09039 68.59292 34733 ft 450 kts 79°
2026-04-26 10:58 24.10087 68.66028 34735 ft 450 kts 79°
2026-04-26 10:58 24.11068 68.72770 34733 ft 449 kts 83°
2026-04-26 10:59 24.10910 68.79600 34734 ft 450 kts 99°
2026-04-26 10:59 24.09465 68.86206 34729 ft 451 kts 105°
2026-04-26 11:00 24.07697 68.92801 34739 ft 452 kts 106°
2026-04-26 11:00 24.05904 68.99384 34735 ft 453 kts 106°
2026-04-26 11:01 24.04144 69.05946 34734 ft 451 kts 105°
2026-04-26 11:01 24.02404 69.12524 34719 ft 450 kts 105°
2026-04-26 11:02 24.00674 69.19104 34716 ft 451 kts 105°
2026-04-26 11:02 23.98945 69.25693 34716 ft 451 kts 105°
2026-04-26 11:03 23.97217 69.32279 34728 ft 451 kts 105°
2026-04-26 11:03 23.95493 69.38836 34733 ft 453 kts 105°
2026-04-26 11:04 23.93754 69.45442 34732 ft 451 kts 105°
2026-04-26 11:04 23.92019 69.52018 34733 ft 452 kts 105°
2026-04-26 11:05 23.90282 69.58590 34728 ft 452 kts 105°
2026-04-26 11:05 23.88532 69.65196 34731 ft 452 kts 106°
2026-04-26 11:06 23.87065 69.70727 34726 ft 452 kts 106°
2026-04-26 11:06 23.85031 69.78381 34725 ft 452 kts 106°
2026-04-26 11:07 23.83272 69.84987 34721 ft 453 kts 106°
2026-04-26 11:07 23.81515 69.91573 34725 ft 452 kts 106°
2026-04-26 11:08 23.79756 69.98155 34719 ft 453 kts 106°
2026-04-26 11:08 23.77989 70.04753 34718 ft 453 kts 106°
2026-04-26 11:09 23.76229 70.11309 34713 ft 453 kts 106°
2026-04-26 11:09 23.74454 70.17912 34717 ft 453 kts 106°
2026-04-26 11:10 23.72684 70.24484 34713 ft 453 kts 106°
2026-04-26 11:10 23.70923 70.31012 34721 ft 451 kts 106°
2026-04-26 11:11 23.69148 70.37579 34722 ft 452 kts 106°
2026-04-26 11:11 23.67375 70.44127 34725 ft 453 kts 106°
2026-04-26 11:12 23.65597 70.50680 34729 ft 452 kts 106°
2026-04-26 11:12 23.63811 70.57252 34728 ft 454 kts 106°
2026-04-26 11:13 23.62019 70.63832 34439 ft 450 kts 106°
2026-04-26 11:13 23.61136 70.67069 33981 ft 445 kts 106°
2026-04-26 11:13 23.60256 70.70291 33520 ft 439 kts 106°
2026-04-26 11:14 23.59400 70.73424 33122 ft 433 kts 106°
2026-04-26 11:14 23.58537 70.76581 32661 ft 428 kts 106°
2026-04-26 11:14 23.57696 70.79653 32211 ft 423 kts 106°
2026-04-26 11:14 23.57142 70.81677 31912 ft 420 kts 106°
2026-04-26 11:15 23.56028 70.85742 31313 ft 414 kts 106°
2026-04-26 11:15 23.55214 70.88711 30870 ft 409 kts 105°
2026-04-26 11:15 23.54402 70.91667 30434 ft 404 kts 105°
2026-04-26 11:15 23.53610 70.94546 30004 ft 401 kts 105°
2026-04-26 11:16 23.52808 70.97462 29569 ft 400 kts 105°
2026-04-26 11:16 23.52016 71.00327 29121 ft 396 kts 106°
2026-04-26 11:16 23.51133 71.03190 28661 ft 400 kts 109°
2026-04-26 11:16 23.50158 71.06028 28017 ft 403 kts 110°
2026-04-26 11:17 23.49115 71.08933 27290 ft 424 kts 110°
2026-04-26 11:17 23.48014 71.11972 26561 ft 447 kts 110°
2026-04-26 11:17 23.46861 71.15160 25812 ft 450 kts 110°
2026-04-26 11:17 23.45740 71.18276 25090 ft 449 kts 110°
2026-04-26 11:18 23.44620 71.21401 24322 ft 440 kts 110°
2026-04-26 11:18 23.43529 71.24458 23613 ft 431 kts 110°
2026-04-26 11:18 23.42454 71.27482 22840 ft 431 kts 110°
2026-04-26 11:18 23.41380 71.30510 22079 ft 430 kts 109°
2026-04-26 11:19 23.40314 71.33521 21270 ft 418 kts 109°
2026-04-26 11:19 23.39284 71.36429 20508 ft 411 kts 109°
2026-04-26 11:19 23.38395 71.39351 19742 ft 407 kts 103°
2026-04-26 11:19 23.37831 71.42315 19027 ft 403 kts 98°
2026-04-26 11:20 23.37415 71.45322 18257 ft 398 kts 96°
2026-04-26 11:20 23.37174 71.47309 17759 ft 395 kts 96°
2026-04-26 11:20 23.36731 71.51173 16784 ft 388 kts 96°
2026-04-26 11:20 23.36407 71.54094 16088 ft 391 kts 96°
2026-04-26 11:21 23.36087 71.57026 15309 ft 389 kts 96°
2026-04-26 11:21 23.35775 71.59921 14592 ft 382 kts 96°
2026-04-26 11:21 23.35477 71.62750 13871 ft 377 kts 95°
2026-04-26 11:21 23.35184 71.65562 13153 ft 375 kts 96°
2026-04-26 11:22 23.34898 71.68362 12432 ft 374 kts 96°
2026-04-26 11:22 23.34621 71.71173 11711 ft 373 kts 96°
2026-04-26 11:22 23.34361 71.73940 10985 ft 372 kts 96°
2026-04-26 11:22 23.34112 71.76704 10713 ft 365 kts 96°
2026-04-26 11:23 23.33870 71.79466 10699 ft 368 kts 96°
2026-04-26 11:23 23.33633 71.82231 10585 ft 362 kts 96°
2026-04-26 11:23 23.33409 71.84917 10081 ft 360 kts 96°
2026-04-26 11:23 23.33197 71.87605 9758 ft 348 kts 96°
2026-04-26 11:24 23.33006 71.90181 9189 ft 338 kts 96°
2026-04-26 11:24 23.32827 71.92715 8424 ft 336 kts 96°
2026-04-26 11:24 23.32648 71.95219 7799 ft 334 kts 96°
2026-04-26 11:24 23.32465 71.97719 7312 ft 333 kts 96°
2026-04-26 11:25 23.32282 72.00191 6924 ft 328 kts 96°
2026-04-26 11:25 23.32103 72.02676 6523 ft 325 kts 96°
2026-04-26 11:25 23.31928 72.05112 6053 ft 324 kts 96°
2026-04-26 11:25 23.31752 72.07534 5570 ft 324 kts 95°
2026-04-26 11:26 23.31569 72.09963 5247 ft 319 kts 95°
2026-04-26 11:26 23.31379 72.12368 5215 ft 321 kts 95°
2026-04-26 11:26 23.31174 72.14877 5207 ft 341 kts 96°
2026-04-26 11:26 23.30962 72.17454 5207 ft 344 kts 95°
2026-04-26 11:27 23.30747 72.20048 5208 ft 343 kts 96°
2026-04-26 11:27 23.30533 72.22627 5204 ft 345 kts 95°
2026-04-26 11:27 23.30317 72.25243 5209 ft 344 kts 96°
2026-04-26 11:27 23.30107 72.27800 5207 ft 344 kts 95°
2026-04-26 11:28 23.29889 72.30428 5205 ft 346 kts 95°
2026-04-26 11:28 23.29671 72.33032 5206 ft 346 kts 95°
2026-04-26 11:28 23.29455 72.35626 5210 ft 345 kts 95°
2026-04-26 11:28 23.29239 72.38219 5206 ft 345 kts 95°
2026-04-26 11:29 23.29025 72.40797 5214 ft 346 kts 95°
2026-04-26 11:29 23.28808 72.43413 5118 ft 342 kts 95°
2026-04-26 11:29 23.28598 72.45954 4656 ft 340 kts 95°
2026-04-26 11:29 23.28383 72.48498 4155 ft 339 kts 95°
2026-04-26 11:30 23.28163 72.51052 4014 ft 338 kts 95°
2026-04-26 11:30 23.28014 72.52759 4012 ft 341 kts 95°
2026-04-26 11:30 23.27715 72.56158 3984 ft 328 kts 95°
2026-04-26 11:30 23.27507 72.58514 4015 ft 298 kts 95°
2026-04-26 11:31 23.27322 72.60641 4012 ft 273 kts 95°
2026-04-26 11:31 23.27145 72.62672 4035 ft 269 kts 95°
2026-04-26 11:31 23.26971 72.64690 3981 ft 265 kts 95°
2026-04-26 11:31 23.26803 72.66666 3704 ft 264 kts 96°
2026-04-26 11:32 23.26634 72.68634 3250 ft 266 kts 96°
2026-04-26 11:32 23.26457 72.70633 2918 ft 258 kts 96°
2026-04-26 11:32 23.26287 72.72529 2724 ft 246 kts 96°
2026-04-26 11:32 23.26119 72.74342 2527 ft 236 kts 97°
2026-04-26 11:33 23.25650 72.75979 2326 ft 224 kts 126°
2026-04-26 11:33 23.24540 72.77052 2122 ft 206 kts 162°
2026-04-26 11:33 23.23193 72.77209 2015 ft 186 kts 195°
2026-04-26 11:33 23.22006 72.76857 2000 ft 172 kts 201°
2026-04-26 11:34 23.20851 72.76477 2008 ft 172 kts 201°
2026-04-26 11:34 23.19755 72.75980 2002 ft 169 kts 216°
2026-04-26 11:34 23.18841 72.75209 2006 ft 166 kts 225°
2026-04-26 11:34 23.17988 72.74344 2004 ft 167 kts 227°
2026-04-26 11:35 23.17150 72.73466 2003 ft 167 kts 227°
2026-04-26 11:35 23.16328 72.72591 2002 ft 167 kts 228°
2026-04-26 11:35 23.15493 72.71703 1891 ft 166 kts 228°
2026-04-26 11:35 23.14945 72.71121 1775 ft 165 kts 228°
2026-04-26 11:36 23.13894 72.70003 1463 ft 153 kts 228°
2026-04-26 11:36 23.13149 72.69209 1309 ft 152 kts 227°
2026-04-26 11:36 23.12384 72.68394 1109 ft 151 kts 227°
2026-04-26 11:36 23.11631 72.67595 927 ft 151 kts 226°
2026-04-26 11:37 23.10889 72.66803 742 ft 150 kts 226°
2026-04-26 11:37 23.10139 72.66014 552 ft 150 kts 226°
2026-04-26 11:37 23.09386 72.65217 367 ft 150 kts 226°
2026-04-26 11:37 23.08645 72.64429 200 ft 147 kts 226°
2026-04-26 11:38 23.08004 72.63741 192 ft 101 kts 225°
2026-04-26 11:38 23.07618 72.63330 188 ft 55 kts 225°
2026-04-26 11:38 23.07476 72.63113 185 ft 25 kts 249°
2026-04-26 11:38 23.07437 72.62983 185 ft 13 kts 258°
2026-04-26 11:39 23.07428 72.62933 185 ft 3 kts 255°
2026-04-26 11:39 23.07420 72.62912 185 ft 2 kts 246°
2026-04-26 11:39 23.07417 72.62905 185 ft 0 kts 246°
2026-04-26 11:39 23.07412 72.62893 185 ft 5 kts 246°
2026-04-26 11:40 23.07377 72.62824 185 ft 14 kts 227°
2026-04-26 11:40 23.07310 72.62751 185 ft 13 kts 225°
2026-04-26 11:40 23.07247 72.62683 185 ft 12 kts 225°
2026-04-26 11:40 23.07190 72.62621 186 ft 9 kts 225°
2026-04-26 11:41 23.07181 72.62573 187 ft 6 kts 307°
2026-04-26 11:42 23.07358 72.62476 185 ft 3 kts 314°
2026-04-26 11:43 23.07373 72.62460 185 ft 2 kts 316°
2026-04-26 11:43 23.07379 72.62454 185 ft 0 kts 316°